sat.trackr.live / text

‹ back to catalog

GEESAT-3 03

NORAD 61013 · 2024-159C

PAYLOAD ACTIVE UNKNOWN

§ Identity

Operator
Country
PRC
Launch date
2024-09-05
Launch site
TAISC
Launch vehicle
Mass (kg)
RCS (m²)

External: N2YO · Heavens-Above · Gunter

§ Orbital elements

Epoch: 2026-09-22T20:04:53.771808Z

Period
97.00 min
Inclination
49.9953°
Eccentricity
0.0005605
Mean motion
14.84519751 rev/d
Perigee alt
611.2 km
Apogee alt
619.0 km
Semi-major
6,993.2 km
B*
1.6489e-4
RAAN
348.9698°
Arg perigee
145.9023°
Mean anomaly
214.2277°
Rev number
11,134

§ Raw data

GEESAT-3 031 61013U 24159C   26265.83673347  .00001177  00000+0  16489-3 0  99902 61013  49.9953 348.9698 0005605 145.9023 214.2277 14.84519751111349

JSON: /api/v1/satellites/61013 · /tle

For live sub-satellite position, see the globe view (requires WebGL).

§ Visibility from observer

Set your observer location to see the next 7 days of passes ≥ 10°. The values pass through the URL so the page stays shareable.

No JS? Fill the form by hand. The geolocation button needs JavaScript.